Wind_Speed
8 8 8 7 7 8 10 13 13 12 8 6 4 1 2 3 4 3 3 3 3 5 4 5 4 1 5 4 5 4 1 4 8 5 5 5 4 7 10 9 5 5 11 8 14
8 8 9 9 8 8 10 12 14 13 11 9 5 1 2 5 6 4 3 6 9 10 8 6 3 2 1 8 1 6 2 4 8 3 10 1 6 8 11 10 9 10 11 11 19
9 8 8 9 10 9 10 12 14 15 14 11 7 3 4 8 8 5 4 7 8 8 6 3 7 3 5 6 3 3 6 5 6 2 9 6 10 7 9 11 10 8 6 10 20
10 8 8 8 8 9 11 12 13 15 15 14 9 5 7 5 2 4 8 6 5 8 5 2 7 4 3 5 9 11 2 1 11 6 12 10 9 8 9 11 7 3 4 12 17
12 10 8 8 7 7 10 11 12 13 16 15 11 7 7 4 5 6 11 14 14 8 9 12 9 4 6 4 8 8 3 7 3 4 11 6 5 9 6 2 3 8 11 15 15
12 11 10 8 7 6 6 10 11 13 14 17 14 10 8 4 4 9 12 9 9 9 4 12 10 4 8 10 2 4 4 7 8 9 7 6 6 11 5 6 7 11 15 16 19
11 9 9 9 7 7 5 7 10 12 14 18 17 15 10 6 5 12 14 13 8 4 3 10 12 7 10 2 8 5 11 16 4 4 6 4 6 8 9 5 6 15 14 17 17
11 9 7 8 7 6 5 5 7 9 12 15 19 17 14 11 7 10 11 8 2 0 4 6 9 16 13 10 9 3 3 3 3 9 4 6 10 4 7 7 11 19 18 14 13
12 8 5 5 4 4 2 2 2 4 6 12 17 20 16 18 8 12 10 7 4 2 4 5 8 10 17 16 5 4 6 3 1 9 7 10 8 4 6 13 14 16 15 17 13
13 9 5 3 2 3 4 4 4 3 2 6 13 18 16 21 13 7 10 10 5 7 6 6 8 7 6 2 20 9 2 9 10 6 5 12 11 7 6 10 11 12 13 14 14
15 11 7 6 8 10 11 11 8 4 1 5 7 17 17 12 20 11 11 11 8 11 5 9 7 7 12 5 1 8 7 13 8 12 10 9 13 9 10 13 12 10 10 12 12
18 14 9 8 13 12 11 6 5 5 0 6 13 18 13 28 21 16 13 16 12 5 6 10 7 9 14 4 13 9 5 13 6 14 6 7 9 10 15 12 8 8 8 8 12
17 15 10 8 10 9 4 3 3 7 11 6 8 14 22 19 21 16 16 15 13 9 9 13 6 17 21 12 13 14 15 8 5 7 11 11 13 16 16 16 16 17 13 10 7
14 12 9 6 5 4 4 2 3 11 7 3 7 14 21 19 22 12 19 15 16 13 11 16 15 11 24 10 13 16 10 9 9 11 4 4 5 20 21 15 19 16 20 12 7
13 10 6 5 2 3 3 3 4 8 5 5 5 9 20 23 16 17 15 11 14 14 13 18 14 16 18 4 6 4 3 10 11 6 4 5 2 4 21 24 16 16 19 17 11
13 10 7 5 5 3 4 3 7 6 6 5 1 12 18 19 9 15 16 14 11 14 16 15 15 14 5 4 5 3 11 12 8 9 6 4 2 5 4 11 16 18 15 15 14
12 9 6 2 1 3 5 3 4 6 14 13 6 11 21 18 16 15 17 20 20 16 16 13 14 13 9 10 5 11 18 7 2 5 6 4 3 4 8 9 12 18 17 18 20
10 9 5 3 0 3 5 5 3 11 16 29 3 11 13 10 14 18 20 21 21 24 13 7 6 7 5 16 13 22 15 5 4 4 4 1 5 4 6 4 4 5 22 22 22
6 6 4 5 8 7 8 3 4 16 22 24 3 7 9 8 10 13 17 23 20 23 22 8 8 12 6 7 19 27 22 11 4 6 1 3 8 9 6 4 3 2 16 21 26
5 5 1 1 7 6 7 8 10 20 20 13 3 6 8 11 12 15 15 14 20 23 25 12 14 11 5 5 12 20 8 5 4 2 4 6 9 15 8 1 7 4 4 19 27
7 7 8 8 6 6 5 10 11 12 14 9 5 2 5 4 13 14 19 21 15 16 24 23 16 16 8 4 8 13 15 5 5 4 7 2 7 12 9 4 7 5 4 12 20
8 7 9 9 7 10 7 9 13 10 10 11 6 7 5 5 4 3 12 11 19 12 24 23 11 22 20 15 15 13 10 13 7 7 11 4 9 15 15 8 8 7 7 4 10
8 10 10 10 11 11 12 11 13 13 12 13 6 5 7 10 6 5 3 5 10 16 20 26 26 26 18 15 10 8 15 7 9 14 15 8 6 16 18 12 9 8 9 12 15
9 8 12 14 12 9 9 11 13 14 15 14 11 10 8 15 9 5 5 2 3 6 11 18 26 24 24 7 3 6 7 7 2 12 13 25 9 22 21 16 14 13 12 13 13
12 13 13 11 13 10 9 10 6 9 9 13 11 4 12 14 13 8 8 4 6 4 11 15 15 20 13 4 8 7 7 6 8 15 14 16 22 23 20 17 14 13 14 12 10
17 17 18 22 17 15 9 6 10 11 6 15 16 7 12 15 10 12 10 5 12 13 15 14 13 10 9 9 9 9 8 9 13 19 26 17 18 26 21 18 16 16 16 15 12
22 23 22 21 24 23 15 12 14 11 8 9 6 14 9 3 2 7 10 9 9 7 15 19 13 14 12 10 11 12 7 5 11 18 22 16 20 24 22 17 16 20 18 13 11
Wind_Direction
315 296 277 262 247 230 220 214 205 201 206 204 206 243 25 37 51 65 168 189 190 200 153 151 162 142 326 315 305 253 85 63 40 184 159 176 209 264 251 276 317 328 299 246 213
326 310 291 271 257 241 231 225 218 208 208 216 213 216 44 62 75 88 207 206 218 197 175 145 114 199 236 341 249 222 73 77 32 58 270 28 318 312 280 296 293 320 285 213 199
328 320 306 284 266 252 242 230 226 218 208 216 212 194 96 95 103 99 172 212 204 177 177 135 279 329 250 321 173 198 86 55 101 115 210 289 316 316 298 309 286 303 290 184 184
321 319 312 303 281 257 248 239 229 224 214 213 210 187 125 95 114 65 19 335 173 170 140 30 80 234 359 245 124 119 85 228 328 191 193 265 316 329 306 288 252 141 113 160 168
317 314 310 306 300 275 251 244 233 223 219 213 206 192 141 115 97 86 58 92 120 114 60 344 308 331 273 180 196 261 255 109 33 133 184 261 304 339 10 39 112 120 137 147 148
318 312 306 300 298 291 263 244 235 225 217 213 202 198 165 172 97 108 101 125 102 96 38 30 20 43 82 88 139 315 235 170 137 140 157 252 316 17 14 55 115 125 147 151 149
327 314 303 295 287 280 272 248 234 225 216 208 203 196 176 185 115 125 114 136 143 153 61 19 61 79 122 85 53 23 142 184 264 198 252 289 338 34 26 73 114 146 154 162 157
340 332 312 296 290 280 270 262 241 231 221 212 202 196 194 193 151 147 133 142 140 21 339 355 46 74 76 66 74 163 165 206 241 196 247 290 311 59 51 85 134 151 149 165 172
358 350 334 307 292 290 287 286 251 238 232 216 203 198 204 201 181 157 158 159 230 229 281 318 355 83 100 72 29 79 1 324 98 217 249 256 277 154 115 133 123 138 148 162 144
11 7 8 32 75 95 96 100 96 101 180 209 206 196 200 208 193 176 201 187 242 246 298 341 333 20 119 35 73 37 40 346 300 305 259 230 260 190 146 139 145 140 137 154 160
21 24 39 78 104 113 109 102 95 59 30 192 165 198 201 195 201 206 212 216 228 233 271 302 340 36 345 27 116 75 55 338 316 262 241 268 246 226 164 170 177 174 155 156 147
27 32 52 102 122 112 104 95 41 348 113 231 202 183 168 198 194 196 203 203 225 236 264 290 311 13 358 227 210 228 340 42 212 238 247 245 214 215 210 200 200 201 173 180 182
25 33 57 114 121 121 122 51 352 343 331 212 228 179 179 183 198 200 216 210 224 243 284 287 309 328 327 278 239 246 256 259 212 210 211 206 223 225 240 223 219 224 235 194 177
17 26 51 93 99 121 136 139 355 350 7 58 145 163 188 182 190 199 220 224 228 248 268 285 290 312 331 288 278 272 289 241 231 163 193 202 235 232 242 242 231 225 235 220 196
11 9 17 25 74 107 137 230 329 3 33 36 138 167 178 183 187 195 196 206 234 248 265 259 292 319 326 274 62 347 139 167 210 204 145 228 234 192 225 240 239 224 230 232 218
6 6 4 41 71 176 182 209 345 5 13 25 163 176 175 186 173 187 198 216 218 235 255 276 277 289 317 310 309 206 153 172 233 204 297 26 360 346 256 269 263 244 224 229 219
358 359 2 41 106 136 118 343 343 36 8 358 322 187 198 201 214 193 200 219 223 238 255 274 260 280 249 241 246 202 162 143 248 200 238 26 1 299 314 269 255 243 225 220 216
344 1 37 54 342 349 344 352 5 353 355 357 4 220 215 197 177 190 201 213 224 232 245 268 253 233 347 235 227 199 188 265 203 195 243 157 247 259 299 308 291 263 229 234 220
326 351 71 69 19 42 25 39 19 10 355 355 152 206 186 173 198 214 225 228 231 228 226 227 241 216 279 259 228 211 234 248 162 72 298 251 256 283 265 283 354 288 229 235 226
271 287 330 231 3 11 19 58 11 5 354 11 166 232 224 193 213 231 238 247 243 234 218 240 251 230 278 315 233 233 251 221 252 124 294 275 263 242 240 254 46 70 248 237 222
240 264 270 285 312 345 358 353 0 357 356 358 337 206 198 186 221 232 256 254 261 248 218 228 243 243 247 248 256 212 185 210 182 223 186 223 259 247 220 169 99 90 102 213 240
268 245 259 279 295 314 317 329 338 337 330 341 340 298 276 283 199 245 286 265 257 250 224 222 235 254 262 276 263 256 248 237 240 228 227 232 271 232 220 180 127 113 115 130 200
276 238 235 256 284 289 295 290 303 331 318 321 18 332 279 280 254 224 230 185 249 250 234 222 227 246 268 263 264 204 185 203 236 261 218 192 245 204 200 190 141 119 116 127 139
278 202 216 230 251 278 290 285 287 299 300 296 269 290 320 312 260 215 261 203 352 241 201 219 220 230 234 250 214 188 224 206 292 224 219 223 242 204 199 183 168 151 143 129 138
254 251 212 205 216 240 263 285 295 316 267 247 237 282 322 309 289 252 253 255 176 182 175 176 215 214 208 241 250 275 251 235 248 223 225 234 232 212 200 181 176 168 165 146 137
256 247 245 237 233 231 253 208 247 300 251 232 204 250 286 278 242 292 250 235 193 181 197 189 179 197 200 258 262 223 258 256 263 226 233 232 226 205 190 186 182 185 174 173 167
258 254 251 243 243 250 251 238 249 271 233 195 236 288 279 247 285 264 254 201 190 173 195 200 203 200 232 242 260 241 254 263 236 210 198 194 201 195 192 191 196 182 168 152 167
Height
3169 3167 3167 3167 3168 3169 3169 3170 3171 3173 3174 3175 3176 3178 3179 3180 3180 3180 3180 3182 3182 3182 3182 3181 3182 3182 3183 3182 3181 3181 3183 3183 3184 3184 3181 3182 3183 3181 3181 3180 3180 3179 3177 3177 3178
3168 3166 3165 3166 3166 3167 3168 3168 3170 3172 3173 3174 3176 3178 3180 3180 3180 3180 3180 3179 3178 3179 3180 3183 3184 3183 3183 3182 3180 3180 3181 3181 3182 3182 3183 3183 3183 3182 3182 3181 3180 3178 3176 3175 3179
3167 3166 3164 3164 3164 3165 3166 3167 3168 3170 3172 3174 3176 3178 3180 3180 3180 3178 3177 3177 3179 3183 3183 3184 3182 3184 3182 3182 3182 3182 3181 3182 3183 3183 3183 3183 3182 3182 3181 3180 3179 3177 3175 3175 3181
3166 3165 3163 3163 3163 3163 3164 3164 3166 3168 3170 3173 3176 3179 3180 3180 3181 3178 3178 3178 3181 3184 3185 3184 3181 3180 3181 3183 3183 3185 3185 3182 3185 3182 3182 3182 3182 3181 3179 3179 3178 3176 3176 3179 3183
3165 3163 3162 3162 3161 3161 3161 3162 3164 3166 3168 3171 3175 3178 3181 3180 3180 3179 3180 3180 3184 3186 3189 3186 3184 3181 3181 3184 3184 3183 3184 3186 3185 3184 3185 3184 3183 3182 3178 3177 3177 3176 3180 3184 3187
3163 3162 3161 3160 3160 3160 3160 3160 3161 3163 3166 3169 3174 3178 3181 3181 3180 3181 3182 3185 3187 3188 3189 3188 3186 3184 3182 3185 3183 3183 3183 3186 3185 3184 3185 3186 3184 3182 3180 3178 3178 3180 3184 3187 3189
3162 3160 3159 3158 3158 3159 3158 3158 3159 3161 3163 3167 3172 3176 3181 3181 3182 3182 3184 3186 3186 3187 3187 3188 3187 3186 3185 3185 3185 3185 3184 3187 3187 3186 3185 3185 3184 3184 3182 3180 3180 3182 3187 3190 3192
3160 3158 3158 3157 3157 3157 3157 3157 3158 3160 3162 3165 3170 3175 3178 3181 3182 3183 3185 3186 3186 3187 3187 3188 3189 3187 3186 3188 3188 3189 3188 3188 3188 3187 3187 3187 3185 3186 3185 3184 3183 3185 3188 3192 3194
3160 3158 3157 3156 3156 3156 3156 3157 3158 3159 3161 3164 3169 3173 3177 3180 3181 3184 3186 3187 3187 3188 3189 3188 3189 3189 3187 3186 3190 3189 3188 3188 3188 3188 3187 3187 3185 3187 3187 3187 3187 3188 3190 3194 3195
3160 3158 3157 3156 3156 3156 3156 3157 3158 3159 3161 3163 3166 3174 3175 3178 3181 3184 3184 3187 3187 3188 3189 3188 3188 3187 3188 3188 3187 3187 3188 3186 3186 3188 3186 3186 3186 3188 3188 3188 3190 3191 3192 3194 3196
3162 3160 3158 3157 3157 3157 3158 3159 3162 3162 3161 3161 3164 3169 3171 3176 3179 3182 3184 3185 3186 3188 3187 3187 3187 3188 3190 3192 3189 3188 3188 3185 3183 3184 3185 3184 3185 3186 3188 3189 3190 3192 3193 3195 3196
3164 3161 3160 3159 3158 3159 3159 3159 3159 3161 3160 3160 3161 3163 3168 3172 3176 3180 3180 3185 3184 3186 3186 3187 3186 3188 3190 3190 3190 3187 3185 3182 3180 3181 3183 3183 3183 3184 3186 3187 3189 3192 3194 3195 3197
3167 3164 3162 3162 3161 3162 3161 3161 3160 3159 3158 3159 3159 3163 3167 3171 3175 3178 3180 3183 3184 3186 3186 3186 3187 3188 3187 3186 3186 3184 3181 3181 3182 3181 3182 3183 3183 3181 3183 3186 3188 3189 3193 3195 3196
3169 3167 3165 3164 3165 3163 3162 3162 3160 3160 3159 3161 3160 3164 3164 3169 3174 3177 3177 3181 3182 3185 3187 3185 3185 3187 3186 3184 3185 3181 3179 3182 3184 3184 3183 3184 3183 3178 3179 3182 3183 3186 3188 3192 3194
3171 3169 3167 3165 3165 3165 3165 3163 3163 3162 3161 3164 3163 3164 3166 3170 3174 3174 3177 3178 3181 3184 3187 3183 3184 3184 3183 3184 3184 3183 3181 3183 3186 3187 3184 3181 3179 3176 3178 3177 3178 3182 3184 3187 3191
3172 3169 3167 3167 3166 3165 3165 3165 3166 3167 3165 3165 3165 3165 3167 3170 3172 3174 3176 3178 3181 3183 3184 3183 3185 3186 3186 3184 3183 3184 3184 3186 3189 3190 3186 3180 3178 3174 3175 3175 3177 3180 3182 3183 3187
3172 3170 3168 3167 3167 3166 3168 3169 3169 3166 3167 3167 3166 3165 3167 3170 3172 3173 3175 3177 3179 3181 3181 3182 3182 3183 3184 3184 3183 3183 3182 3189 3195 3194 3185 3179 3177 3174 3173 3172 3172 3173 3176 3179 3183
3171 3170 3169 3168 3167 3168 3169 3169 3168 3167 3164 3161 3159 3163 3165 3168 3169 3171 3172 3173 3176 3179 3180 3180 3181 3181 3181 3180 3180 3181 3182 3181 3180 3185 3179 3176 3173 3171 3170 3168 3168 3168 3170 3174 3179
3171 3170 3169 3169 3168 3169 3169 3167 3167 3166 3164 3159 3159 3162 3164 3166 3169 3170 3171 3171 3172 3174 3179 3178 3178 3178 3178 3179 3182 3181 3182 3181 3177 3180 3179 3176 3171 3169 3168 3167 3165 3163 3165 3169 3173
3170 3169 3169 3169 3168 3168 3169 3167 3167 3165 3162 3161 3161 3162 3163 3165 3167 3167 3168 3166 3167 3170 3173 3176 3177 3177 3178 3178 3178 3179 3182 3181 3177 3180 3180 3174 3170 3166 3166 3167 3165 3164 3164 3166 3170
3168 3168 3167 3167 3167 3168 3167 3167 3165 3165 3163 3163 3162 3162 3162 3162 3163 3164 3164 3165 3165 3167 3170 3174 3176 3175 3176 3177 3176 3178 3179 3177 3177 3177 3175 3175 3167 3164 3166 3167 3166 3166 3166 3166 3169
3164 3166 3165 3164 3166 3164 3164 3164 3164 3163 3162 3162 3162 3162 3162 3161 3160 3160 3159 3158 3159 3160 3164 3168 3171 3170 3170 3173 3174 3172 3175 3175 3175 3174 3171 3170 3165 3164 3165 3167 3167 3168 3167 3167 3167
3161 3161 3162 3162 3162 3162 3162 3162 3161 3160 3159 3159 3160 3161 3160 3160 3160 3157 3157 3157 3156 3157 3156 3162 3167 3168 3169 3172 3170 3169 3169 3170 3170 3168 3165 3167 3163 3161 3163 3167 3167 3169 3170 3170 3171
3159 3159 3158 3159 3159 3160 3159 3159 3158 3157 3156 3156 3159 3160 3158 3158 3157 3155 3156 3156 3154 3153 3153 3157 3160 3163 3165 3166 3167 3168 3167 3165 3164 3164 3161 3160 3160 3160 3161 3164 3167 3169 3171 3173 3175
3154 3155 3156 3156 3157 3157 3157 3157 3155 3154 3154 3154 3157 3158 3157 3156 3154 3153 3153 3154 3153 3153 3153 3155 3157 3159 3161 3161 3162 3162 3162 3160 3159 3159 3159 3157 3158 3159 3162 3167 3170 3171 3174 3176 3177
3149 3150 3151 3152 3153 3153 3154 3153 3153 3152 3153 3150 3153 3154 3155 3154 3153 3153 3151 3151 3152 3153 3153 3153 3155 3156 3157 3157 3157 3158 3157 3154 3154 3154 3155 3156 3159 3161 3164 3166 3169 3171 3173 3177 3179
3142 3144 3145 3146 3147 3149 3150 3150 3150 3149 3147 3148 3150 3150 3149 3151 3151 3151 3149 3149 3149 3151 3150 3151 3151 3154 3155 3155 3155 3154 3151 3148 3148 3148 3151 3154 3157 3159 3162 3165 3168 3172 3175 3177 3179